Location: Hamayl? Da??
(36.7028°N, 30.1716°E)
Time: 12:53:56
(UTC+00:00)

ATLAS 2AS CENTAUR R/B - Pass Details

Date: 04 August 2024
Orbit: 1023 x 1188 km, 63.7° (Epoch: 11 September)

Event Time Altitude Azimuth Distance (km) Brightness Sun altitude
Exits shadow 22:57:20 50° 81° (E) 1,426 3.3 -35.0°
Drops below altitude 10° 23:03:05 10° 40° (NE) 3,006 5.7 -34.7°
Sets 23:05:46 0° 37° (NE) 3,944 6.6 -34.5°
